Wind_Speed
30 29 28 28 27 26 26 25 24 25 23 23 23 23 22 21 22 22 22 22 21 21 21 20 20 20 20 21 21 22 24 25 27 28 29 30 30 31 31 32 33 33 33 33
32 30 30 29 27 26 25 25 24 25 24 24 24 23 22 21 21 21 21 21 20 21 20 20 20 20 21 21 23 24 25 27 28 29 30 30 31 31 32 32 32 32 32 32
34 32 30 29 28 27 26 25 25 25 25 25 25 23 22 21 21 21 21 20 20 20 20 19 20 20 21 22 24 25 27 28 29 30 31 31 31 32 32 32 32 31 31 31
35 33 30 29 28 28 26 25 25 25 26 24 25 24 21 20 21 21 20 20 20 20 20 20 21 21 22 24 25 27 28 29 31 31 32 32 32 32 32 32 31 31 31 32
35 34 32 30 28 28 26 25 26 25 26 25 24 26 21 19 20 21 20 20 20 20 20 21 22 23 24 25 27 28 29 31 32 32 33 33 33 33 33 32 33 33 34 35
35 34 32 31 29 29 27 26 25 26 27 26 22 26 23 18 18 20 20 20 21 21 22 22 23 24 25 26 28 29 31 32 33 33 34 34 35 34 34 34 35 36 37 38
34 33 32 31 29 28 26 26 26 26 26 25 22 24 23 20 20 20 20 21 22 22 23 24 24 26 27 28 29 31 32 33 34 35 35 36 36 36 37 37 38 39 40 41
35 34 32 30 29 28 27 27 26 26 25 26 22 22 20 21 22 22 21 22 23 24 25 26 27 28 29 30 31 32 34 35 36 36 37 37 37 38 39 40 40 41 43 44
33 34 32 30 29 28 27 26 26 26 25 25 24 22 20 20 23 24 23 24 25 26 27 28 29 30 31 32 33 35 36 37 38 38 38 39 39 40 40 41 43 44 46 47
33 34 32 31 30 28 27 26 25 26 25 25 23 23 22 19 23 25 25 26 27 28 29 30 31 32 33 35 37 38 39 39 40 40 40 40 41 42 43 43 45 46 48 50
32 33 31 30 28 27 27 25 25 26 25 25 24 24 23 21 23 25 27 28 28 29 30 32 33 35 36 38 39 40 41 41 41 41 42 42 43 44 45 46 47 49 50 52
30 31 31 29 28 28 26 25 25 25 25 25 25 24 23 24 26 27 28 30 30 31 32 34 36 38 39 40 41 42 43 43 43 43 44 44 45 46 47 48 50 51 53 55
28 29 29 28 27 28 26 25 25 25 26 25 25 25 24 26 28 29 30 30 32 33 35 36 38 40 41 42 43 43 44 44 44 45 45 46 47 48 49 50 52 54 56 58
28 28 27 26 28 26 25 24 25 26 26 26 25 25 26 30 31 31 31 32 34 36 37 39 40 41 43 44 44 44 45 45 46 46 47 47 48 49 51 53 54 56 58 60
28 27 26 27 28 26 25 25 26 27 26 28 26 26 27 32 34 34 35 35 36 38 39 41 42 43 44 45 45 45 46 47 47 48 49 49 50 51 53 55 57 59 61 63
29 29 29 29 28 28 27 26 26 27 27 29 29 28 30 33 35 37 38 39 39 40 41 42 44 45 45 45 46 46 47 48 48 49 50 51 52 54 56 58 60 61 63 66
31 30 30 30 30 30 29 26 28 28 29 31 32 31 33 35 36 38 39 41 42 43 43 44 44 45 45 45 46 47 48 49 50 51 52 53 55 56 58 60 62 64 66 69
31 31 31 31 31 33 28 28 28 30 31 32 33 34 36 37 38 39 40 42 43 44 44 44 44 45 45 46 47 48 49 50 51 52 53 55 57 58 60 62 64 67 70 72
32 32 33 33 33 32 30 29 29 31 32 32 34 36 38 38 39 40 41 42 43 43 44 44 45 45 46 47 47 48 49 50 52 53 55 57 58 60 62 65 67 70 73 75
32 33 34 34 35 35 32 31 31 33 34 32 34 37 38 39 41 41 42 43 43 43 44 45 45 46 47 47 48 49 50 51 53 55 56 58 60 63 66 68 70 73 75 77
32 33 34 35 37 36 34 33 33 35 35 36 37 38 39 40 41 42 42 43 43 44 45 45 46 47 48 48 49 49 51 52 54 56 58 60 63 66 68 71 73 75 77 79
32 34 35 35 37 36 33 35 36 37 38 39 39 39 40 40 41 42 43 44 45 45 46 47 47 48 48 49 50 51 53 55 56 58 60 63 66 68 71 73 75 77 79 81
33 33 34 35 36 36 36 37 38 39 40 40 40 41 41 42 42 43 44 45 46 47 47 47 48 48 49 50 51 53 55 56 58 60 63 65 68 70 73 75 78 79 81 83
33 33 34 34 35 36 37 38 40 40 41 41 42 42 43 43 44 44 45 46 46 47 47 47 48 49 50 51 53 55 56 58 61 63 66 68 71 73 75 77 80 81 83 83
34 33 33 34 35 37 37 39 40 41 42 42 42 43 44 44 45 45 46 46 46 46 47 48 49 50 51 52 54 56 59 61 63 66 68 71 73 76 78 79 81 82 83 83
34 33 33 35 36 37 38 39 40 41 42 42 43 44 44 45 45 46 46 46 47 47 48 49 50 51 52 54 56 59 61 64 66 69 71 74 76 78 80 81 82 81 81 79
Wind_Direction
240 241 242 245 249 253 259 263 266 271 273 273 274 276 279 278 277 276 275 275 274 274 274 274 275 277 279 281 284 287 289 291 293 294 294 293 292 292 291 291 291 290 290 289
240 240 242 246 250 253 256 261 266 270 273 274 275 277 278 278 277 276 275 274 273 273 273 275 276 277 280 284 287 290 292 294 295 295 294 293 292 292 291 291 291 291 290 290
241 242 244 247 250 252 255 260 264 270 272 274 275 276 277 277 275 274 273 273 272 273 273 275 277 280 284 287 291 293 295 296 297 296 295 294 293 293 292 292 291 290 290 290
241 241 243 246 249 252 255 259 264 268 271 274 277 277 275 276 275 273 272 272 272 273 273 276 279 283 287 290 293 296 297 298 298 297 297 296 296 295 293 292 290 289 290 290
241 241 242 245 249 253 256 259 263 267 271 274 278 279 276 273 273 273 273 273 273 273 274 277 281 285 289 292 295 297 298 299 299 298 297 297 296 295 293 292 290 289 289 290
242 242 242 244 247 252 255 258 261 265 270 273 275 277 278 276 273 274 275 275 274 275 277 280 283 287 290 293 296 298 299 299 299 299 298 297 296 295 293 292 290 290 290 289
240 242 242 243 246 250 253 256 260 264 268 271 270 273 279 281 275 274 275 276 277 278 280 282 285 288 291 294 296 298 299 299 299 298 297 297 296 294 292 291 291 290 290 290
240 241 242 243 246 248 251 253 258 263 267 271 272 272 278 280 278 277 277 278 279 280 282 283 286 288 291 294 296 299 299 300 299 297 296 296 295 293 292 291 291 291 291 291
242 242 240 241 243 246 248 253 257 261 263 269 273 274 270 275 278 279 279 279 280 282 283 285 287 289 291 293 296 298 300 300 299 297 296 295 294 293 292 291 291 291 291 292
240 243 242 242 242 245 249 252 253 257 262 267 269 272 272 272 276 280 282 282 283 284 285 286 288 290 291 293 295 297 299 299 298 297 296 295 294 293 292 292 292 292 292 293
238 242 242 241 243 247 249 248 251 256 260 266 269 270 275 277 277 280 283 285 286 286 287 287 289 290 291 293 295 297 298 298 298 297 296 295 294 293 293 292 293 293 294 294
233 238 240 239 242 244 245 247 251 256 260 263 267 270 276 279 279 281 284 286 287 287 288 289 290 291 292 293 295 296 297 297 297 297 296 295 294 294 293 294 294 295 296 296
232 235 239 241 240 242 245 247 252 255 259 264 270 276 277 278 280 283 285 287 288 288 289 290 291 292 292 293 294 295 296 297 297 296 296 295 295 294 295 295 296 297 298 299
234 235 238 243 245 244 246 248 252 257 262 266 270 274 278 280 281 283 286 288 289 289 290 291 292 292 293 293 294 294 295 295 296 296 296 295 295 296 296 297 298 299 299 300
234 234 237 242 249 250 249 250 254 260 265 268 270 273 279 282 286 288 288 288 289 290 291 291 292 292 293 293 293 294 294 295 295 296 296 296 296 297 298 298 299 300 301 302
235 236 238 241 247 251 252 255 260 263 266 270 272 274 277 281 286 289 290 291 291 291 291 292 292 292 292 292 293 293 294 295 295 296 296 296 297 298 299 300 301 302 302 303
239 241 243 245 248 252 255 259 263 266 268 271 274 276 278 281 285 287 289 291 292 292 292 292 292 292 292 293 293 294 294 294 295 296 296 297 298 299 300 301 302 303 303 304
242 244 248 251 254 257 262 263 265 267 270 273 276 278 280 283 285 287 289 290 291 292 292 292 291 292 292 293 293 294 294 294 295 296 296 298 299 300 301 302 303 303 304 306
246 248 252 255 258 262 263 267 269 270 271 274 278 280 282 284 286 288 290 290 291 291 291 291 291 292 292 293 293 294 294 294 295 296 297 299 300 301 302 303 304 305 306 307
249 251 254 258 262 266 269 270 270 272 274 276 277 279 281 283 286 287 288 289 290 291 291 292 292 292 293 293 293 294 294 295 296 297 299 300 301 301 303 304 305 306 307 309
250 253 256 260 264 267 271 275 276 276 279 279 280 281 283 285 287 288 290 291 292 293 293 293 293 294 294 294 294 294 295 296 297 298 299 300 301 303 304 305 306 308 309 310
250 253 256 261 265 272 275 275 276 278 279 281 284 285 286 288 289 290 291 292 293 294 295 294 294 294 294 294 295 295 296 297 298 300 301 302 303 304 306 307 308 309 310 311
253 255 258 261 267 271 274 276 278 279 280 282 285 286 288 289 290 291 292 293 293 294 294 294 294 295 295 295 295 296 297 298 300 301 302 304 305 306 308 309 310 311 311 312
255 257 260 263 267 271 274 276 278 280 282 283 285 286 288 289 290 291 293 294 295 294 294 294 295 295 295 296 296 297 298 300 301 303 304 305 307 308 309 310 311 312 312 312
257 258 261 265 268 271 273 276 279 280 282 284 285 287 289 290 290 291 293 294 295 294 294 294 295 295 296 297 298 299 300 302 303 305 306 307 308 309 310 311 312 312 313 313
258 261 263 266 268 271 273 274 276 279 282 284 286 288 289 290 291 292 293 294 294 294 295 295 296 297 298 299 300 301 302 304 305 306 307 308 309 310 311 311 312 313 313 313
Height
5812 5816 5818 5820 5822 5824 5824 5825 5826 5825 5826 5827 5826 5826 5826 5826 5825 5825 5824 5824 5825 5824 5824 5824 5823 5823 5822 5821 5820 5818 5817 5815 5813 5811 5808 5806 5804 5801 5799 5797 5794 5792 5790 5788
5808 5810 5812 5814 5817 5818 5819 5820 5820 5820 5821 5821 5821 5821 5821 5820 5820 5820 5819 5819 5820 5819 5819 5819 5818 5818 5817 5816 5814 5813 5811 5809 5807 5804 5802 5799 5797 5794 5792 5789 5787 5785 5782 5780
5801 5804 5806 5809 5811 5812 5813 5814 5815 5815 5815 5815 5815 5816 5816 5815 5815 5815 5814 5814 5815 5814 5814 5814 5813 5812 5811 5810 5808 5807 5804 5802 5800 5797 5795 5792 5790 5787 5785 5782 5779 5777 5775 5773
5794 5798 5800 5802 5804 5806 5808 5809 5809 5809 5809 5809 5809 5809 5811 5810 5810 5809 5809 5809 5809 5809 5809 5809 5808 5807 5806 5804 5802 5800 5798 5795 5793 5790 5787 5785 5782 5780 5777 5774 5772 5770 5768 5765
5788 5791 5794 5796 5799 5800 5802 5803 5803 5803 5803 5804 5804 5802 5806 5805 5805 5804 5804 5804 5804 5804 5804 5803 5802 5801 5800 5798 5796 5794 5791 5789 5786 5783 5780 5777 5775 5772 5769 5767 5765 5762 5760 5757
5781 5784 5788 5790 5793 5794 5796 5797 5797 5797 5797 5799 5799 5796 5798 5800 5800 5799 5799 5799 5799 5799 5798 5798 5797 5795 5794 5792 5790 5788 5785 5782 5779 5776 5773 5770 5767 5764 5762 5759 5757 5754 5751 5749
5774 5777 5781 5783 5786 5788 5790 5792 5792 5792 5792 5793 5794 5792 5793 5794 5794 5794 5794 5793 5793 5793 5793 5792 5791 5789 5788 5786 5783 5781 5778 5775 5772 5768 5765 5762 5759 5756 5753 5751 5748 5745 5742 5739
5767 5771 5774 5778 5780 5782 5784 5785 5787 5787 5787 5786 5787 5788 5790 5788 5787 5787 5788 5788 5788 5787 5787 5786 5784 5783 5781 5779 5776 5774 5771 5767 5764 5761 5757 5754 5751 5748 5745 5742 5739 5736 5732 5729
5761 5764 5768 5771 5773 5776 5778 5779 5780 5781 5781 5781 5782 5783 5784 5783 5781 5781 5782 5782 5782 5781 5780 5779 5778 5776 5774 5771 5769 5766 5763 5759 5756 5752 5749 5746 5743 5739 5736 5733 5729 5726 5722 5718
5754 5757 5761 5764 5767 5769 5772 5773 5774 5774 5775 5776 5778 5777 5778 5779 5776 5775 5775 5775 5775 5775 5774 5772 5770 5768 5766 5763 5761 5758 5754 5751 5747 5744 5740 5737 5733 5730 5726 5723 5719 5716 5712 5707
5748 5751 5755 5758 5761 5764 5766 5768 5768 5769 5770 5771 5771 5773 5772 5772 5771 5770 5769 5768 5768 5767 5766 5764 5762 5760 5758 5755 5752 5748 5745 5741 5738 5734 5731 5727 5723 5720 5716 5712 5709 5704 5700 5695
5742 5745 5748 5752 5755 5756 5759 5761 5762 5764 5764 5764 5765 5769 5766 5765 5764 5763 5762 5761 5760 5759 5758 5756 5754 5751 5748 5745 5742 5739 5735 5732 5728 5724 5720 5716 5713 5709 5705 5701 5696 5692 5687 5681
5736 5740 5743 5745 5750 5751 5753 5755 5756 5757 5758 5758 5759 5763 5760 5758 5757 5756 5756 5755 5753 5751 5749 5747 5744 5742 5739 5735 5732 5729 5725 5721 5717 5713 5709 5705 5701 5697 5693 5688 5683 5678 5673 5667
5731 5734 5738 5740 5740 5745 5747 5749 5750 5750 5752 5753 5754 5754 5752 5750 5749 5749 5749 5747 5745 5743 5740 5738 5735 5732 5729 5725 5722 5718 5714 5711 5707 5702 5698 5694 5690 5685 5680 5675 5670 5664 5658 5652
5725 5729 5731 5733 5735 5738 5740 5742 5744 5745 5746 5746 5748 5747 5746 5742 5741 5740 5739 5738 5736 5734 5731 5727 5724 5721 5718 5714 5711 5707 5703 5699 5695 5691 5687 5682 5677 5672 5667 5662 5656 5650 5643 5636
5719 5723 5725 5728 5729 5731 5733 5736 5737 5738 5739 5738 5739 5740 5738 5736 5734 5731 5729 5727 5726 5723 5721 5717 5714 5710 5707 5703 5700 5696 5692 5688 5683 5679 5674 5669 5664 5659 5654 5648 5642 5635 5628 5621
5714 5717 5719 5721 5723 5724 5727 5731 5730 5731 5731 5731 5730 5731 5729 5728 5726 5724 5721 5718 5715 5712 5709 5706 5703 5699 5696 5692 5688 5684 5680 5676 5671 5667 5662 5656 5651 5645 5639 5633 5626 5619 5612 5604
5708 5709 5711 5714 5716 5717 5724 5723 5723 5723 5724 5723 5722 5721 5719 5718 5716 5714 5711 5708 5705 5701 5698 5695 5691 5688 5684 5680 5676 5672 5668 5663 5659 5654 5649 5643 5637 5632 5625 5618 5611 5604 5596 5587
5700 5703 5704 5706 5707 5709 5714 5715 5715 5714 5715 5715 5713 5711 5709 5708 5706 5704 5700 5697 5694 5691 5687 5683 5680 5676 5673 5669 5665 5660 5655 5651 5646 5641 5635 5629 5623 5617 5610 5603 5595 5587 5578 5570
5693 5695 5698 5698 5699 5701 5706 5706 5706 5706 5706 5707 5704 5702 5700 5698 5696 5694 5690 5686 5683 5679 5676 5672 5668 5665 5661 5656 5652 5648 5643 5638 5633 5628 5622 5616 5609 5602 5594 5587 5578 5569 5560 5551
5687 5688 5689 5690 5690 5692 5696 5697 5697 5697 5697 5695 5693 5691 5690 5687 5685 5682 5678 5675 5671 5668 5664 5660 5656 5652 5648 5644 5640 5635 5630 5625 5620 5614 5608 5601 5594 5586 5578 5570 5561 5551 5542 5532
5679 5680 5681 5682 5682 5686 5688 5687 5687 5686 5685 5683 5682 5680 5678 5676 5674 5670 5667 5663 5660 5656 5652 5648 5644 5640 5636 5631 5627 5622 5617 5612 5606 5600 5594 5587 5579 5570 5562 5553 5543 5533 5522 5512
5670 5673 5674 5675 5677 5677 5677 5677 5676 5675 5674 5673 5671 5670 5668 5665 5662 5659 5656 5652 5648 5645 5641 5636 5632 5628 5624 5619 5614 5609 5604 5598 5592 5586 5578 5571 5563 5554 5544 5534 5524 5514 5502 5491
5662 5664 5665 5666 5667 5667 5667 5666 5665 5664 5664 5662 5661 5659 5657 5654 5651 5648 5644 5641 5637 5633 5629 5625 5620 5616 5611 5606 5601 5595 5589 5583 5577 5570 5563 5554 5546 5537 5528 5517 5505 5494 5482 5470
5653 5655 5656 5657 5658 5657 5657 5656 5655 5654 5653 5651 5649 5647 5645 5642 5639 5636 5633 5629 5625 5621 5617 5613 5608 5604 5598 5593 5587 5581 5575 5568 5562 5554 5546 5538 5528 5519 5510 5499 5487 5475 5463 5448
5644 5646 5648 5648 5649 5648 5648 5647 5645 5644 5642 5640 5638 5636 5633 5630 5627 5624 5621 5617 5613 5609 5605 5600 5596 5591 5585 5580 5574 5567 5560 5553 5546 5538 5530 5520 5510 5500 5490 5480 5471 5459 5445 5433